| time (UTC) | temp F | wind direction | speed MPH | gust MPH | rain 1hr in | rain 24hr in | rain mn in | humidity % | barometer mb |
| 20260903192515 | 95 | 0.0 | 2.0 | 0.00 | 0.00 | 0.00 | 51 | 1018.3 | |
| 20260903191536 | 94 | 0.0 | 1.0 | 0.00 | 0.00 | 0.00 | 51 | 1018.5 | |
| 20260903190515 | 94 | 0.0 | 3.0 | 0.00 | 0.00 | 0.00 | 53 | 1018.5 | |
| 20260903185516 | 94 | 0.0 | 3.0 | 0.00 | 0.00 | 0.00 | 52 | 1018.6 | |
| 20260903184538 | 95 | 0.0 | 2.0 | 0.00 | 0.00 | 0.00 | 52 | 1018.6 | |
| 20260903183518 | 94 | 0.0 | 1.0 | 0.00 | 0.00 | 0.00 | 54 | 1018.8 | |
| 20260903182517 | 93 | 0.0 | 1.0 | 0.00 | 0.00 | 0.00 | 53 | 1018.9 | |
| 20260903181517 | 94 | 0.0 | 0.0 | 0.00 | 0.00 | 0.00 | 50 | 1019.0 | |
| 20260903180518 | 94 | 0.0 | 1.0 | 0.00 | 0.00 | 0.00 | 56 | 1019.1 | |
| 20260903175518 | 93 | 0.0 | 2.0 | 0.00 | 0.00 | 0.00 | 54 | 1019.2 | |
| 20260903174517 | 92 | 0.0 | 2.0 | 0.00 | 0.00 | 0.00 | 57 | 1019.2 | |
| 20260903173537 | 91 | 0.0 | 1.0 | 0.00 | 0.00 | 0.00 | 63 | 1019.4 | |
| 20260903172517 | 91 | 0.0 | 0.0 | 0.00 | 0.00 | 0.00 | 62 | 1019.5 | |
| 20260903171517 | 92 | 0.0 | 0.0 | 0.00 | 0.00 | 0.00 | 56 | 1019.7 | |
| 20260903170517 | 93 | 0.0 | 2.0 | 0.00 | 0.00 | 0.00 | 55 | 1019.8 | |
| 20260903165538 | 91 | 0.0 | 1.0 | 0.00 | 0.00 | 0.00 | 57 | 1019.9 | |
| 20260903164537 | 91 | 0.0 | 0.0 | 0.00 | 0.00 | 0.00 | 60 | 1020.0 | |
| 20260903163517 | 93 | 0.0 | 1.0 | 0.00 | 0.00 | 0.00 | 57 | 1020.2 | |
| 20260903162517 | 93 | 0.0 | 2.0 | 0.00 | 0.00 | 0.00 | 57 | 1020.4 | |
| 20260903161537 | 92 | 0.0 | 2.0 | 0.00 | 0.00 | 0.00 | 56 | 1020.4 | |
| 20260903160517 | 92 | 338 | 1.0 | 3.0 | 0.00 | 0.00 | 0.00 | 56 | 1020.5 |
| 20260903155518 | 91 | 338 | 1.0 | 4.0 | 0.00 | 0.00 | 0.00 | 59 | 1020.5 |
| 20260903154517 | 90 | 0.0 | 0.0 | 0.00 | 0.00 | 0.00 | 61 | 1020.5 | |
| 20260903153517 | 89 | 0.0 | 1.0 | 0.00 | 0.00 | 0.00 | 64 | 1020.4 | |
| 20260903152517 | 88 | 0.0 | 2.0 | 0.00 | 0.00 | 0.00 | 67 | 1020.4 | |
| 20260903151517 | 86 | 0.0 | 2.0 | 0.00 | 0.00 | 0.00 | 70 | 1020.4 | |
| 20260903150537 | 85 | 68 | 1.0 | 3.0 | 0.00 | 0.00 | 0.00 | 73 | 1020.3 |
| 20260903145517 | 84 | 0.0 | 2.0 | 0.00 | 0.00 | 0.00 | 76 | 1020.3 | |
| 20260903144518 | 83 | 0.0 | 2.0 | 0.00 | 0.00 | 0.00 | 75 | 1020.2 | |
| 20260903143517 | 83 | 0 | 1.0 | 4.0 | 0.00 | 0.00 | 0.00 | 77 | 1020.3 |
| 20260903142517 | 82 | 0.0 | 3.0 | 0.00 | 0.00 | 0.00 | 80 | 1020.2 | |
| 20260903141516 | 81 | 68 | 1.0 | 4.0 | 0.00 | 0.00 | 0.00 | 79 | 1020.3 |
| 20260903140536 | 80 | 0.0 | 0.0 | 0.00 | 0.00 | 0.00 | 82 | 1020.2 | |
| 20260903135517 | 79 | 0.0 | 0.0 | 0.00 | 0.00 | 0.00 | 85 | 1020.2 | |
| 20260903134517 | 78 | 0.0 | 0.0 | 0.00 | 0.00 | 0.00 | 86 | 1020.1 | |
| 20260903133537 | 77 | 0.0 | 0.0 | 0.00 | 0.00 | 0.00 | 88 | 1020.1 | |
| 20260903132536 | 76 | 0.0 | 2.0 | 0.00 | 0.00 | 0.00 | 89 | 1020.2 | |
| 20260903131517 | 76 | 0.0 | 3.0 | 0.00 | 0.00 | 0.00 | 92 | 1020.3 | |
| 20260903130516 | 75 | 0.0 | 2.0 | 0.00 | 0.00 | 0.00 | 93 | 1020.4 | |
| 20260903125517 | 75 | 0.0 | 3.0 | 0.00 | 0.00 | 0.00 | 94 | 1020.2 | |
| 20260903124537 | 74 | 0.0 | 2.0 | 0.00 | 0.00 | 0.00 | 95 | 1020.3 | |
| 20260903123517 | 74 | 0.0 | 0.0 | 0.00 | 0.00 | 0.00 | 96 | 1020.2 | |
| 20260903122516 | 74 | 0.0 | 1.0 | 0.00 | 0.00 | 0.00 | 95 | 1020.2 | |
| 20260903121516 | 73 | 0.0 | 0.0 | 0.00 | 0.00 | 0.00 | 96 | 1020.2 | |
| 20260903120516 | 73 | 0.0 | 0.0 | 0.00 | 0.00 | 0.00 | 95 | 1020.3 | |
| 20260903115516 | 72 | 0.0 | 0.0 | 0.00 | 0.00 | 0.00 | 95 | 1020.2 | |
| 20260903114516 | 72 | 0.0 | 0.0 | 0.00 | 0.00 | 0.00 | 94 | 1020.0 | |
| 20260903113516 | 72 | 0.0 | 0.0 | 0.00 | 0.00 | 0.00 | 94 | 1019.9 | |
| 20260903112517 | 72 | 0.0 | 0.0 | 0.00 | 0.00 | 0.00 | 94 | 1019.8 | |
| 20260903111517 | 72 | 0.0 | 0.0 | 0.00 | 0.00 | 0.00 | 94 | 1019.8 | |
| 20260903110517 | 73 | 0.0 | 0.0 | 0.00 | 0.00 | 0.00 | 94 | 1019.6 | |
| 20260903105516 | 73 | 0.0 | 0.0 | 0.00 | 0.00 | 0.00 | 94 | 1019.6 | |
| 20260903104516 | 73 | 0.0 | 0.0 | 0.00 | 0.00 | 0.00 | 94 | 1019.5 | |
| 20260903103516 | 73 | 0.0 | 0.0 | 0.00 | 0.00 | 0.00 | 93 | 1019.5 | |
| 20260903102516 | 73 | 0.0 | 0.0 | 0.00 | 0.00 | 0.00 | 93 | 1019.5 | |
| 20260903101517 | 73 | 0.0 | 0.0 | 0.00 | 0.00 | 0.00 | 93 | 1019.5 | |
| 20260903100617 | 73 | 0.0 | 0.0 | 0.00 | 0.00 | 0.00 | 93 | 1019.3 | |
| 20260903095516 | 73 | 0.0 | 0.0 | 0.00 | 0.00 | 0.00 | 93 | 1019.4 | |
| 20260903094516 | 73 | 0.0 | 0.0 | 0.00 | 0.00 | 0.00 | 93 | 1019.3 | |
| 20260903093516 | 73 | 0.0 | 0.0 | 0.00 | 0.00 | 0.00 | 93 | 1019.3 | |
| 20260903092516 | 73 | 0.0 | 0.0 | 0.00 | 0.00 | 0.00 | 93 | 1019.3 | |
| 20260903091517 | 73 | 0.0 | 0.0 | 0.00 | 0.00 | 0.00 | 93 | 1019.3 | |
| 20260903090517 | 73 | 0.0 | 0.0 | 0.00 | 0.00 | 0.00 | 93 | 1019.4 | |
| 20260903085516 | 73 | 0.0 | 0.0 | 0.00 | 0.00 | 0.00 | 93 | 1019.6 | |
| 20260903084516 | 73 | 0.0 | 0.0 | 0.00 | 0.00 | 0.00 | 93 | 1019.6 | |
| 20260903083516 | 73 | 0.0 | 0.0 | 0.00 | 0.00 | 0.00 | 93 | 1019.7 | |
| 20260903082516 | 73 | 0.0 | 0.0 | 0.00 | 0.00 | 0.00 | 93 | 1019.6 | |
| 20260903081515 | 73 | 0.0 | 0.0 | 0.00 | 0.00 | 0.00 | 93 | 1019.6 | |
| 20260903080535 | 73 | 0.0 | 0.0 | 0.00 | 0.00 | 0.00 | 92 | 1019.4 | |
| 20260903075516 | 73 | 0.0 | 0.0 | 0.00 | 0.00 | 0.00 | 92 | 1019.4 | |
| 20260903074515 | 73 | 0.0 | 0.0 | 0.00 | 0.00 | 0.00 | 91 | 1019.3 | |
| 20260903073516 | 74 | 0.0 | 0.0 | 0.00 | 0.00 | 0.00 | 90 | 1019.2 | |
| 20260903072556 | 74 | 0.0 | 0.0 | 0.00 | 0.00 | 0.00 | 90 | 1019.3 | |
| 20260903071516 | 74 | 0.0 | 0.0 | 0.00 | 0.00 | 0.00 | 90 | 1019.2 | |
| 20260903070536 | 74 | 0.0 | 0.0 | 0.00 | 0.00 | 0.00 | 90 | 1019.2 | |
| 20260903065515 | 74 | 0.0 | 0.0 | 0.00 | 0.00 | 0.00 | 89 | 1019.2 | |
| 20260903064518 | 74 | 0.0 | 0.0 | 0.00 | 0.00 | 0.00 | 88 | 1019.2 | |
| 20260903063517 | 74 | 0.0 | 0.0 | 0.00 | 0.00 | 0.00 | 88 | 1019.1 | |
| 20260903062517 | 75 | 0.0 | 0.0 | 0.00 | 0.00 | 0.00 | 88 | 1019.1 | |
| 20260903061517 | 75 | 0.0 | 0.0 | 0.00 | 0.00 | 0.00 | 88 | 1019.1 | |
| 20260903060517 | 75 | 0.0 | 0.0 | 0.00 | 0.00 | 0.00 | 88 | 1019.2 | |
| 20260903055517 | 75 | 0.0 | 0.0 | 0.00 | 0.00 | 0.00 | 88 | 1019.3 | |
| 20260903054518 | 75 | 0.0 | 0.0 | 0.00 | 0.00 | 0.00 | 87 | 1019.3 | |
| 20260903053518 | 75 | 0.0 | 0.0 | 0.00 | 0.00 | 0.00 | 87 | 1019.4 | |
| 20260903052517 | 76 | 0.0 | 0.0 | 0.00 | 0.00 | 0.00 | 86 | 1019.5 | |
| 20260903051517 | 76 | 0.0 | 0.0 | 0.00 | 0.00 | 0.00 | 85 | 1019.6 | |
| 20260903050518 | 76 | 0.0 | 0.0 | 0.00 | 0.00 | 0.00 | 85 | 1019.7 | |
| 20260903045517 | 77 | 0.0 | 0.0 | 0.00 | 0.00 | 0.00 | 84 | 1019.8 | |
| 20260903044537 | 77 | 0.0 | 0.0 | 0.00 | 0.00 | 0.00 | 84 | 1019.7 | |
| 20260903043517 | 77 | 0.0 | 0.0 | 0.00 | 0.00 | 0.00 | 84 | 1019.7 | |
| 20260903042518 | 77 | 0.0 | 0.0 | 0.00 | 0.00 | 0.00 | 84 | 1019.7 | |
| 20260903041517 | 77 | 0.0 | 0.0 | 0.00 | 0.00 | 0.00 | 84 | 1019.7 | |
| 20260903040517 | 77 | 0.0 | 0.0 | 0.00 | 0.00 | 0.00 | 83 | 1019.5 | |
| 20260903035517 | 77 | 0.0 | 0.0 | 0.00 | 0.00 | 0.00 | 82 | 1019.6 | |
| 20260903034517 | 78 | 0.0 | 0.0 | 0.00 | 0.00 | 0.00 | 82 | 1019.6 | |
| 20260903033537 | 78 | 0.0 | 0.0 | 0.00 | 0.00 | 0.00 | 82 | 1019.5 | |
| 20260903032517 | 78 | 0.0 | 0.0 | 0.00 | 0.00 | 0.00 | 82 | 1019.6 | |
| 20260903031518 | 78 | 0.0 | 0.0 | 0.00 | 0.00 | 0.00 | 82 | 1019.7 | |
| 20260903030517 | 78 | 0.0 | 0.0 | 0.00 | 0.00 | 0.00 | 81 | 1019.7 | |
| 20260903025537 | 78 | 0.0 | 0.0 | 0.00 | 0.00 | 0.00 | 81 | 1019.6 | |
| 20260903024517 | 78 | 0.0 | 0.0 | 0.00 | 0.00 | 0.00 | 80 | 1019.5 | |
| 20260903023517 | 78 | 0.0 | 0.0 | 0.00 | 0.00 | 0.00 | 80 | 1019.5 | |
| 20260903022517 | 79 | 0.0 | 0.0 | 0.00 | 0.00 | 0.00 | 79 | 1019.4 | |
| 20260903021518 | 79 | 0.0 | 0.0 | 0.00 | 0.00 | 0.00 | 79 | 1019.3 | |
| 20260903020517 | 79 | 0.0 | 0.0 | 0.00 | 0.00 | 0.00 | 77 | 1019.3 | |
| 20260903015517 | 79 | 0.0 | 0.0 | 0.00 | 0.00 | 0.00 | 77 | 1019.2 | |
| 20260903014517 | 79 | 0.0 | 0.0 | 0.00 | 0.00 | 0.00 | 76 | 1019.1 | |
| 20260903013517 | 80 | 0.0 | 0.0 | 0.00 | 0.00 | 0.00 | 76 | 1019.0 | |
| 20260903012536 | 80 | 0.0 | 0.0 | 0.00 | 0.00 | 0.00 | 75 | 1018.8 | |
| 20260903011517 | 80 | 0.0 | 0.0 | 0.00 | 0.00 | 0.00 | 74 | 1018.7 | |
| 20260903010518 | 81 | 0.0 | 0.0 | 0.00 | 0.00 | 0.00 | 74 | 1018.6 | |
| 20260903005517 | 81 | 0.0 | 0.0 | 0.00 | 0.00 | 0.00 | 73 | 1018.5 | |
| 20260903004516 | 81 | 0.0 | 0.0 | 0.00 | 0.00 | 0.00 | 72 | 1018.4 | |
| 20260903003516 | 82 | 0.0 | 0.0 | 0.00 | 0.00 | 0.00 | 72 | 1018.3 | |
| 20260903002517 | 82 | 0.0 | 0.0 | 0.00 | 0.00 | 0.00 | 70 | 1018.3 | |
| 20260903001536 | 83 | 0.0 | 0.0 | 0.00 | 0.00 | 0.00 | 70 | 1018.2 | |
| 20260903000516 | 83 | 0.0 | 0.0 | 0.00 | 0.00 | 0.00 | 68 | 1018.2 | |
| 20260902235516 | 84 | 0.0 | 0.0 | 0.00 | 0.00 | 0.00 | 68 | 1018.3 | |
| 20260902234537 | 85 | 0.0 | 0.0 | 0.00 | 0.00 | 0.00 | 66 | 1018.2 | |
| 20260902233517 | 85 | 0.0 | 0.0 | 0.00 | 0.00 | 0.00 | 65 | 1018.3 | |
| 20260902232516 | 86 | 0.0 | 0.0 | 0.00 | 0.00 | 0.00 | 65 | 1018.4 | |
| 20260902231516 | 87 | 0.0 | 0.0 | 0.00 | 0.00 | 0.00 | 62 | 1018.4 | |
| 20260902230516 | 87 | 0.0 | 0.0 | 0.00 | 0.00 | 0.00 | 61 | 1018.4 | |
| 20260902225516 | 88 | 0.0 | 1.0 | 0.00 | 0.00 | 0.00 | 60 | 1018.4 | |
| 20260902224517 | 89 | 0.0 | 1.0 | 0.00 | 0.00 | 0.00 | 60 | 1018.6 | |
| 20260902223537 | 90 | 0.0 | 0.0 | 0.00 | 0.00 | 0.00 | 60 | 1018.6 | |
| 20260902222536 | 90 | 0.0 | 0.0 | 0.00 | 0.00 | 0.00 | 58 | 1018.7 | |
| 20260902221516 | 91 | 0.0 | 2.0 | 0.00 | 0.00 | 0.00 | 56 | 1018.6 | |
| 20260902220516 | 93 | 0.0 | 1.0 | 0.00 | 0.00 | 0.00 | 53 | 1018.7 | |
| 20260902215516 | 94 | 0.0 | 0.0 | 0.00 | 0.00 | 0.00 | 51 | 1018.7 | |
| 20260902214537 | 94 | 0.0 | 1.0 | 0.00 | 0.00 | 0.00 | 48 | 1018.8 | |
| 20260902213516 | 94 | 0.0 | 2.0 | 0.00 | 0.00 | 0.00 | 46 | 1018.8 | |
| 20260902212516 | 94 | 0.0 | 0.0 | 0.00 | 0.00 | 0.00 | 48 | 1018.8 | |
| 20260902211516 | 95 | 0.0 | 2.0 | 0.00 | 0.00 | 0.00 | 50 | 1018.9 | |
| 20260902210516 | 94 | 0.0 | 2.0 | 0.00 | 0.00 | 0.00 | 48 | 1018.9 | |
| 20260902205516 | 94 | 0.0 | 1.0 | 0.00 | 0.00 | 0.00 | 47 | 1018.9 | |
| 20260902204517 | 94 | 0.0 | 2.0 | 0.00 | 0.00 | 0.00 | 47 | 1019.0 | |
| 20260902203516 | 95 | 0.0 | 0.0 | 0.00 | 0.00 | 0.00 | 48 | 1019.1 | |
| 20260902202516 | 95 | 0.0 | 0.0 | 0.00 | 0.00 | 0.00 | 48 | 1019.2 | |
| 20260902201516 | 95 | 0.0 | 0.0 | 0.00 | 0.00 | 0.00 | 50 | 1019.4 | |
| 20260902200516 | 95 | 0.0 | 0.0 | 0.00 | 0.00 | 0.00 | 49 | 1019.5 | |
| 20260902195516 | 95 | 0.0 | 1.0 | 0.00 | 0.00 | 0.00 | 50 | 1019.6 | |
| 20260902194515 | 95 | 45 | 1.0 | 3.0 | 0.00 | 0.00 | 0.00 | 50 | 1019.7 |
| 20260902193516 | 93 | 0.0 | 0.0 | 0.00 | 0.00 | 0.00 | 58 | 1019.9 |